Location: LDNL
(36.4545°S, 141.6685°E)
Time: 11:35:44
(UTC+10:00)

S-56A Canister/Altair - All Passes

Search period start: 08 August 2022 00:00
Search period end: 18 August 2022 00:00
Orbit: 635 x 2498 km, 38.9° (Epoch: 07 August)

Date Brightness Start Highest point End Pass type
(mag) Time Alt. Az. Time Alt. Az. Time Alt. Az.
08 Aug - 05:05:12 10° N 05:07:48 13° NNE 05:10:10 10° ENE visible
08 Aug - 07:06:19 10° NW 07:11:16 53° NNE 07:15:38 10° E daylight
08 Aug - 09:10:23 10° W 09:14:52 67° S 09:19:43 10° ESE daylight
08 Aug - 11:14:03 10° WSW 11:18:44 89° S 11:24:54 10° ENE daylight
08 Aug - 13:17:34 10° W 13:22:36 35° NNW 13:29:32 10° NE daylight
09 Aug - 04:33:11 10° NNE 04:35:12 12° NNE 04:37:03 10° NE visible
09 Aug - 06:33:36 10° NW 06:38:47 47° NNE 06:43:08 10° E visible
09 Aug - 08:37:45 10° W 08:42:21 69° S 08:47:01 10° ESE daylight
09 Aug - 10:41:39 10° WSW 10:46:12 82° SSE 10:51:54 10° ENE daylight
09 Aug - 12:45:09 10° W 12:49:58 38° NNW 12:56:32 10° NE daylight
09 Aug - 14:52:47 10° NW 14:54:06 10° NW 14:55:27 10° NNW daylight
10 Aug - 04:01:35 10° NNE 04:02:33 10° NE 04:03:29 10° NE visible
10 Aug - 06:00:50 10° NW 06:06:18 41° NNE 06:10:40 10° E visible
10 Aug - 08:05:04 10° W 08:09:52 73° S 08:14:24 10° ESE daylight
10 Aug - 10:09:12 10° WSW 10:13:42 76° SSE 10:18:58 10° E daylight
10 Aug - 12:12:43 10° W 12:17:23 42° NNW 12:23:35 10° NE daylight
10 Aug - 14:19:10 10° NW 14:21:21 12° NW 14:23:44 10° NNW daylight
11 Aug - 05:28:01 10° NW 05:33:45 37° NNE 05:38:13 10° E visible
11 Aug - 07:32:17 10° W 07:37:22 79° SSW 07:41:51 10° ESE daylight
11 Aug - 09:36:41 10° WSW 09:41:11 71° S 09:46:07 10° E daylight
11 Aug - 11:40:18 10° W 11:44:49 46° NNW 11:50:40 10° NE daylight
11 Aug - 13:46:02 10° WNW 13:48:39 13° NNW 13:51:36 10° N daylight
12 Aug - 04:55:09 10° NW 05:01:12 34° NNE 05:05:45 10° E visible
12 Aug - 06:59:25 10° WNW 07:04:52 85° SSW 07:09:23 10° ESE daylight
12 Aug - 09:04:07 10° WSW 09:08:41 67° S 09:13:23 10° E daylight
12 Aug - 11:07:51 10° W 11:12:19 52° NNW 11:17:49 10° NE daylight
12 Aug - 13:13:06 10° WNW 13:15:59 14° NNW 13:19:19 10° N daylight
13 Aug - 04:22:16 10° NNW 04:28:35 31° NNE 04:33:18 10° E visible
13 Aug - 06:26:27 10° WNW 06:32:21 87° NNE 06:36:58 10° ESE visible
13 Aug - 08:31:27 10° W 08:36:11 65° S 08:40:43 10° E daylight
13 Aug - 10:35:24 10° WSW 10:39:49 59° NNW 10:45:01 10° NE daylight
13 Aug - 12:40:18 10° WNW 12:43:22 16° NNW 12:46:56 10° N daylight
14 Aug - 03:49:20 10° NNW 03:55:55 29° NNE 04:00:49 10° E visible
14 Aug - 05:53:26 10° WNW 05:59:49 80° NNE 06:04:34 10° ESE visible
14 Aug - 07:58:42 10° W 08:03:39 65° S 08:08:08 10° E daylight
14 Aug - 10:02:53 10° WSW 10:07:21 67° NNW 10:12:17 10° ENE daylight
14 Aug - 12:07:33 10° WNW 12:10:47 18° NNW 12:14:32 10° N daylight
15 Aug - 03:16:23 10° NNW 03:23:13 27° NNE 03:28:18 10° E visible
15 Aug - 05:20:19 10° WNW 05:27:15 73° NNE 05:32:12 10° ESE visible
15 Aug - 07:25:50 10° W 07:31:09 65° S 07:35:36 10° E daylight
15 Aug - 09:30:20 10° WSW 09:34:53 76° NNW 09:39:37 10° ENE daylight
15 Aug - 11:34:51 10° WNW 11:38:15 20° NNW 11:42:07 10° NNE daylight
16 Aug - 02:43:26 10° NNW 02:50:27 25° NNE 02:55:43 10° E visible
16 Aug - 04:47:09 10° WNW 04:54:38 67° NNE 04:59:51 10° ESE visible
16 Aug - 06:52:52 10° W 06:58:36 67° S 07:03:09 10° E daylight
16 Aug - 08:57:42 10° WSW 09:02:25 85° NNW 09:07:00 10° ENE daylight
16 Aug - 11:02:10 10° W 11:05:44 22° NNW 11:09:42 10° NNE daylight
17 Aug - 02:10:30 10° NNW 02:17:39 23° NNE 02:23:05 10° E visible
17 Aug - 04:13:54 10° NW 04:21:59 62° NNE 04:27:29 10° ESE visible
17 Aug - 06:19:47 10° W 06:26:02 70° S 06:30:44 10° ESE visible
17 Aug - 08:25:00 10° WSW 08:29:56 87° S 08:34:27 10° ENE daylight
17 Aug - 10:29:30 10° W 10:33:15 26° NNW 10:37:18 10° NNE daylight
